Temperature
4 2 2 2 2 4 3 3 3 3 2 2 1 1 2 3 3 2 2 3 3 4 4 4 4 4 5 5 5 5 5 5 5 5 5 6 6 6 6 6 7 7 7 7
2 2 2 2 2 3 3 3 2 2 2 2 1 1 1 2 2 2 2 2 2 3 3 3 3 4 4 4 4 4 4 4 4 4 5 5 5 6 6 6 6 6 6 7
3 2 2 3 2 2 2 2 2 2 1 1 1 2 2 1 1 1 1 2 2 2 2 2 3 3 3 4 4 4 4 4 4 4 4 4 5 5 5 6 6 6 6 6
1 1 2 2 2 2 2 2 2 1 1 0 1 2 2 1 0 0 1 1 1 1 2 2 2 2 3 3 3 3 3 3 3 4 4 4 4 4 5 5 5 5 5 5
1 1 2 2 2 2 1 1 1 0 0 -1 -1 0 1 0 0 0 -0 0 1 1 1 2 2 2 2 2 2 3 3 3 3 3 3 3 3 4 4 4 5 5 5 5
0 0 0 1 1 1 0 -0 -1 -2 -1 0 -0 -0 1 -0 -0 -0 -1 -0 0 1 1 1 1 2 2 2 2 2 2 3 3 3 3 3 3 3 3 4 4 4 4 5
0 0 0 0 0 0 -0 -0 -0 0 -1 0 -1 -1 -0 -0 -1 -1 -1 -1 -0 0 1 1 1 1 1 2 2 2 2 2 2 2 2 2 2 3 3 3 3 4 4 4
1 0 -0 -0 -0 -1 -1 -0 0 1 0 -0 -1 -1 -1 -1 -1 -1 -1 -1 -1 -0 0 0 0 1 1 1 1 1 1 2 2 2 2 2 2 2 2 2 3 3 3 4
-0 -0 -1 -0 -1 -1 -1 -2 -2 -2 -2 -2 -2 -3 -2 -1 -2 -2 -2 -2 -1 -1 -1 -0 0 0 1 1 1 1 1 1 1 1 1 1 1 2 2 2 2 2 3 3
-1 -2 -2 -1 -1 -1 -2 -3 -3 -2 -1 -0 -1 -2 -1 -2 -2 -2 -3 -2 -1 -1 -1 -1 -0 0 0 0 0 0 0 0 0 1 1 1 1 1 1 2 2 2 3 3
-2 -2 -2 -2 -2 -2 -3 -3 -3 -4 -3 -2 -1 -1 -2 -3 -3 -3 -3 -2 -2 -2 -2 -1 -1 -0 -0 -0 -0 -0 -0 -0 -0 0 0 0 0 0 1 1 1 2 2 2
-3 -3 -3 -3 -3 -3 -3 -4 -4 -3 -3 -4 -3 -1 -2 -4 -4 -3 -3 -2 -2 -2 -2 -2 -1 -1 -1 -1 -1 -1 -1 -1 -1 -1 -1 -0 -0 -0 0 0 1 1 2 2
-4 -3 -2 -2 -3 -4 -4 -5 -5 -5 -4 -5 -3 -2 -3 -4 -4 -3 -3 -3 -2 -2 -2 -2 -2 -2 -1 -1 -1 -1 -1 -1 -1 -1 -1 -1 -1 -1 -0 -0 0 1 1 1
-2 -4 -2 -1 -1 -3 -4 -5 -5 -5 -4 -5 -4 -3 -3 -3 -4 -4 -4 -3 -3 -3 -3 -3 -3 -3 -2 -2 -2 -2 -2 -2 -2 -2 -1 -1 -1 -1 -1 -1 -1 -0 0 0
-3 -4 -5 -4 -4 -4 -4 -5 -5 -5 -5 -4 -4 -4 -3 -4 -5 -4 -4 -4 -4 -4 -4 -4 -4 -3 -3 -2 -2 -2 -2 -2 -2 -2 -2 -1 -1 -1 -1 -1 -1 -1 -1 -0
-5 -5 -5 -5 -5 -5 -5 -4 -5 -5 -5 -5 -5 -4 -4 -5 -5 -5 -5 -5 -5 -4 -5 -4 -4 -4 -4 -3 -3 -3 -3 -3 -3 -2 -2 -2 -2 -2 -2 -2 -2 -1 -1 -1
-6 -6 -5 -5 -6 -5 -5 -5 -5 -6 -6 -6 -5 -4 -6 -6 -6 -6 -5 -5 -5 -5 -5 -5 -5 -4 -4 -4 -4 -3 -3 -3 -3 -3 -3 -2 -2 -2 -2 -2 -2 -2 -2 -1
-6 -6 -6 -6 -6 -4 -3 -6 -6 -6 -6 -7 -6 -6 -6 -6 -6 -5 -5 -5 -5 -5 -5 -5 -5 -5 -4 -4 -4 -4 -4 -3 -3 -3 -3 -3 -3 -3 -3 -2 -2 -2 -2 -2
-7 -6 -6 -6 -6 -5 -5 -6 -7 -6 -6 -7 -7 -7 -7 -7 -6 -6 -5 -5 -6 -6 -6 -6 -6 -5 -5 -4 -4 -4 -4 -4 -4 -4 -4 -3 -3 -3 -3 -3 -3 -3 -3 -2
-8 -7 -7 -7 -6 -5 -4 -6 -7 -7 -6 -6 -7 -8 -7 -7 -7 -6 -6 -6 -6 -6 -6 -6 -6 -5 -5 -5 -5 -5 -5 -5 -5 -4 -4 -4 -4 -4 -4 -4 -3 -3 -3 -3
-8 -8 -8 -8 -7 -6 -6 -7 -7 -5 -5 -6 -7 -7 -7 -8 -7 -6 -6 -6 -6 -6 -6 -6 -6 -6 -6 -6 -5 -5 -5 -5 -5 -5 -5 -4 -4 -4 -4 -4 -4 -3 -3 -3
-8 -8 -8 -8 -7 -6 -7 -7 -7 -6 -6 -6 -6 -6 -7 -7 -7 -6 -6 -6 -6 -6 -6 -6 -6 -6 -6 -6 -6 -6 -6 -6 -6 -5 -5 -5 -5 -4 -4 -4 -4 -4 -4 -3
-8 -8 -8 -7 -6 -6 -7 -6 -6 -6 -6 -6 -6 -6 -7 -7 -7 -7 -7 -6 -6 -7 -7 -7 -7 -6 -6 -6 -6 -6 -6 -6 -6 -6 -5 -5 -5 -5 -5 -5 -4 -4 -4 -4
-9 -9 -9 -9 -8 -8 -6 -6 -6 -6 -6 -6 -6 -6 -7 -7 -7 -7 -7 -7 -7 -7 -7 -7 -7 -7 -6 -6 -7 -7 -7 -7 -6 -6 -6 -6 -6 -5 -5 -5 -5 -5 -4 -4
-9 -10 -10 -9 -9 -8 -6 -6 -6 -6 -6 -6 -7 -7 -7 -7 -7 -7 -7 -7 -7 -7 -7 -7 -7 -7 -7 -7 -7 -7 -7 -7 -7 -7 -6 -6 -6 -6 -6 -5 -5 -5 -5 -5
-10 -10 -9 -8 -8 -8 -7 -6 -6 -7 -7 -7 -7 -7 -7 -7 -7 -7 -7 -7 -7 -7 -7 -7 -7 -7 -7 -7 -7 -7 -7 -7 -7 -7 -7 -7 -7 -6 -6 -6 -6 -5 -5 -5
Wind_Speed
4 4 1 4 4 2 2 3 5 5 3 3 7 11 12 8 6 8 7 5 5 6 4 2 2 2 2 1 1 1 2 2 1 0 0 1 2 2 2 3 3 3 3 2
4 1 3 1 1 1 2 3 5 5 2 3 6 11 10 8 6 6 6 6 6 5 3 3 2 2 2 2 2 2 2 2 2 1 2 2 2 2 2 3 3 3 3 2
3 2 1 1 0 0 3 4 5 5 6 2 5 8 6 4 4 3 3 4 4 4 4 3 3 2 2 2 3 3 3 3 2 1 0 1 1 1 2 2 2 4 3 2
1 2 1 1 1 1 4 2 3 3 3 4 1 6 7 4 5 4 4 4 4 4 3 2 3 3 3 3 3 3 3 2 2 1 1 2 2 3 4 3 3 4 4 3
1 1 1 1 2 1 2 1 1 2 2 3 2 4 8 2 5 6 5 5 4 3 3 3 4 4 4 3 2 3 2 3 2 1 2 2 3 3 3 3 3 3 3 3
0 1 0 1 1 0 1 2 2 2 2 4 5 5 7 4 5 6 5 5 4 3 3 3 3 3 3 2 2 2 3 3 2 2 2 3 3 3 3 4 3 3 3 3
3 2 1 0 1 3 3 3 4 5 3 6 2 4 8 5 4 4 6 5 4 2 2 3 3 4 3 2 3 3 3 3 3 2 3 3 4 4 5 5 4 4 4 4
0 4 2 1 1 2 1 3 4 4 5 5 2 6 7 4 4 4 3 3 3 3 3 3 4 4 3 3 4 3 3 4 3 3 4 4 4 4 4 5 5 5 5 5
2 3 2 2 1 2 2 2 2 3 1 4 6 7 8 3 4 4 4 4 4 4 4 4 5 4 3 3 4 3 4 4 4 4 4 4 4 4 5 5 5 5 5 5
3 2 3 3 2 3 1 4 3 3 2 5 6 5 5 6 6 5 5 4 5 6 6 6 6 4 3 3 3 3 3 4 5 5 4 4 5 5 6 5 6 6 6 5
2 2 4 2 2 3 2 2 2 2 3 3 5 6 3 4 4 5 5 5 5 6 6 7 7 5 4 3 3 3 4 4 5 5 5 5 5 5 5 5 6 6 6 6
1 3 3 5 2 0 2 4 5 3 4 4 4 7 3 3 4 4 5 6 6 6 6 6 6 5 4 4 4 4 5 5 5 5 5 6 6 5 5 5 6 6 6 6
3 3 2 4 2 2 1 2 2 2 2 4 4 8 3 5 6 6 6 7 7 7 7 7 6 6 5 5 5 5 5 6 6 6 6 7 7 6 6 6 6 6 6 6
3 3 5 7 5 2 4 4 3 4 4 6 9 11 11 9 10 9 8 8 7 7 7 7 7 6 6 6 5 6 6 6 6 6 7 7 6 6 6 6 6 6 6 7
3 2 4 6 6 4 6 8 7 9 9 9 10 11 13 10 9 8 7 7 7 8 8 7 7 7 7 7 6 6 6 7 7 7 7 7 6 6 6 6 6 6 6 7
2 2 1 4 3 5 8 10 9 10 9 10 12 14 8 7 5 6 7 7 7 8 9 8 8 8 8 8 7 7 7 7 7 7 7 7 6 6 6 6 6 6 6 6
3 3 1 4 4 4 7 8 8 6 6 7 9 9 6 7 8 7 8 8 8 8 8 9 8 8 8 8 7 6 7 7 7 7 7 6 6 6 6 6 6 6 7 6
4 4 2 2 3 6 6 1 4 5 7 7 7 7 7 8 9 8 7 6 6 7 8 9 9 9 9 8 7 6 6 7 7 7 7 7 6 7 7 6 6 7 6 6
3 4 2 1 4 8 6 2 3 3 6 4 6 8 6 5 5 5 3 3 5 7 8 8 8 8 8 8 7 7 7 7 7 8 8 8 7 7 7 7 7 6 6 6
3 3 3 2 3 6 6 2 1 2 5 3 3 5 5 5 5 5 6 7 8 8 7 7 8 8 8 8 7 7 8 8 8 9 9 8 7 7 7 8 7 6 6 6
2 2 3 4 5 8 5 1 2 2 5 4 2 4 3 3 5 7 8 8 7 8 8 8 7 7 8 7 6 7 8 9 10 9 9 9 8 7 7 7 6 6 6 5
6 5 5 4 4 8 2 3 4 5 3 3 4 4 4 5 7 7 7 8 8 8 8 8 7 8 8 6 6 8 9 10 9 9 9 9 8 7 6 5 5 5 5 5
6 7 5 8 7 3 3 4 4 2 3 4 4 5 4 6 7 8 7 7 7 8 8 7 7 8 8 7 6 8 10 9 9 9 9 9 9 7 6 5 5 4 4 4
4 2 3 5 7 5 5 5 4 4 5 6 5 5 4 6 7 8 7 7 7 7 7 7 7 8 9 8 7 7 9 9 8 9 9 9 8 7 6 5 4 4 4 4
4 4 3 5 6 5 4 5 5 5 5 5 5 5 5 6 7 7 7 7 7 7 7 6 6 7 9 9 9 9 8 8 8 9 8 8 7 7 6 5 4 4 4 5
3 5 5 6 5 4 5 4 4 4 5 5 5 6 5 5 6 7 7 6 6 7 7 7 7 8 9 9 9 9 8 7 8 8 8 7 6 6 6 5 6 7 6 8
Wind_Direction
29 68 184 224 210 214 178 220 261 268 286 277 259 269 273 273 259 255 256 258 263 266 271 277 282 303 316 303 272 261 278 279 280 250 255 244 281 298 313 331 329 329 333 320
45 285 251 230 170 154 213 254 271 289 306 284 278 274 267 255 247 241 239 247 259 273 294 302 306 317 309 295 269 259 263 277 263 232 230 220 242 249 268 307 322 318 318 306
169 234 290 130 142 244 260 228 246 270 319 323 304 287 262 265 254 257 262 255 254 249 258 277 288 298 305 292 284 272 269 271 271 280 270 321 286 280 273 291 284 313 303 293
117 315 2 51 267 211 262 245 251 275 311 294 330 283 274 267 276 270 275 277 267 260 253 267 285 296 287 280 283 284 270 281 278 261 205 218 241 270 274 276 272 298 298 286
297 347 11 244 262 200 217 340 320 281 233 295 269 235 280 297 278 276 280 279 273 265 249 262 276 282 281 281 285 287 287 285 272 235 204 216 245 260 278 282 279 282 299 288
225 322 52 208 340 121 185 32 26 40 78 274 234 203 276 251 250 283 286 288 286 279 272 281 289 299 295 297 307 311 309 289 270 254 226 219 243 267 276 274 270 271 277 288
345 340 351 24 45 10 50 70 8 349 340 254 216 226 254 259 261 269 285 292 291 287 284 300 310 315 307 320 319 312 311 306 289 267 248 237 242 247 252 251 253 262 267 274
359 288 300 355 168 183 200 147 169 231 253 282 277 241 256 282 297 301 298 302 316 320 310 301 306 297 297 308 311 309 309 304 298 282 268 250 245 249 255 258 253 251 254 260
178 256 344 355 347 132 135 168 162 151 277 278 269 281 296 298 325 335 345 351 332 321 318 313 313 300 298 303 301 295 299 304 301 289 284 267 250 256 260 258 260 255 252 261
148 260 302 315 40 28 123 145 106 139 236 271 283 273 272 301 313 322 326 329 330 335 329 319 313 304 300 290 299 309 297 292 295 293 279 277 263 259 257 255 258 262 259 256
114 169 309 332 205 207 130 124 138 161 193 217 279 277 243 260 288 295 297 310 320 323 321 316 312 310 310 315 314 312 306 304 304 300 290 282 280 273 261 257 259 260 267 258
121 123 263 259 270 290 178 184 162 187 244 217 247 273 284 280 305 305 305 313 321 318 317 316 316 314 318 318 316 312 307 305 301 294 290 282 280 276 271 267 264 264 262 264
139 119 343 332 336 3 298 217 195 165 169 207 227 268 319 342 330 327 316 312 315 317 320 322 325 324 319 312 310 307 303 301 300 294 290 286 277 272 272 273 274 270 262 262
127 164 205 232 252 216 251 249 217 174 215 240 238 265 294 313 316 317 315 312 312 314 314 318 321 319 320 313 305 302 304 307 304 300 291 283 277 271 268 269 269 271 270 262
115 216 245 263 272 259 248 251 226 218 224 234 258 262 275 293 294 295 303 311 318 321 319 319 318 319 323 320 313 307 308 310 307 302 299 289 284 275 269 266 265 269 270 269
126 194 275 281 271 263 269 259 240 239 242 249 269 273 278 290 289 297 304 306 309 315 318 318 320 320 319 318 311 309 309 307 307 305 301 298 292 283 271 267 265 268 270 267
166 156 213 276 313 323 276 245 218 223 223 217 246 264 314 311 304 299 298 302 303 309 314 316 316 313 312 312 309 306 307 310 308 303 301 298 292 286 277 273 269 265 266 263
163 157 186 291 358 260 252 216 202 227 252 234 254 279 291 289 296 291 284 290 301 310 314 316 316 317 317 317 313 308 311 309 306 303 302 301 290 289 283 272 268 265 264 260
157 159 168 204 269 279 292 262 187 214 276 249 255 282 302 316 320 304 306 318 303 306 307 307 309 312 317 320 320 320 320 317 311 306 303 300 291 287 284 274 268 268 266 266
74 111 146 169 231 259 267 270 213 126 289 290 258 284 307 343 335 303 321 325 317 315 315 315 317 321 321 322 326 326 321 318 310 308 306 305 296 284 280 273 269 271 268 268
129 138 183 202 236 265 263 255 117 178 272 311 279 280 283 275 261 289 308 311 310 312 314 318 322 320 317 322 328 323 319 311 307 309 308 307 302 288 279 273 268 269 273 273
180 179 195 178 219 258 219 142 185 233 287 295 288 282 275 280 289 300 306 308 314 316 318 321 321 316 318 325 327 321 316 313 315 316 313 313 310 302 289 277 275 273 269 270
201 197 193 199 221 259 195 216 240 247 269 274 271 279 281 290 297 306 306 307 311 312 316 319 317 316 321 326 323 314 315 321 322 320 317 316 315 312 305 285 279 280 273 268
248 203 201 250 265 265 264 265 271 255 258 271 271 277 277 280 292 301 302 306 311 311 313 317 320 320 320 324 322 313 318 324 323 319 319 319 318 319 320 311 294 284 279 274
227 176 215 258 280 302 284 259 265 278 279 286 289 279 271 276 288 292 298 301 303 307 312 314 313 312 313 319 321 322 324 327 324 321 320 320 320 319 322 321 315 304 294 284
198 190 201 241 244 229 268 284 287 280 286 291 297 299 294 279 282 292 297 300 302 307 311 314 315 314 314 319 320 324 326 327 325 324 325 324 323 323 322 319 323 326 321 324
Height
1506 1511 1515 1514 1514 1513 1514 1516 1515 1513 1511 1512 1509 1506 1500 1498 1498 1496 1495 1495 1495 1495 1496 1496 1497 1497 1498 1498 1498 1498 1499 1500 1500 1500 1500 1501 1501 1503 1504 1504 1505 1506 1507 1507
1511 1515 1513 1512 1513 1513 1514 1515 1515 1512 1511 1511 1509 1503 1496 1494 1493 1492 1492 1491 1491 1491 1491 1492 1493 1494 1494 1494 1495 1495 1496 1496 1497 1497 1497 1498 1499 1499 1500 1501 1502 1503 1503 1504
1511 1514 1512 1512 1513 1514 1513 1515 1514 1514 1512 1510 1510 1500 1494 1490 1490 1490 1489 1488 1488 1488 1488 1488 1489 1490 1490 1491 1491 1492 1492 1493 1494 1494 1495 1496 1496 1496 1497 1497 1497 1499 1499 1500
1513 1513 1512 1512 1513 1512 1513 1512 1512 1513 1516 1515 1513 1508 1492 1490 1489 1487 1486 1486 1485 1485 1485 1485 1486 1486 1487 1487 1488 1489 1489 1490 1491 1491 1491 1491 1491 1491 1491 1492 1493 1494 1496 1496
1514 1514 1513 1513 1513 1512 1514 1513 1514 1515 1517 1519 1516 1514 1494 1491 1488 1485 1484 1483 1482 1482 1483 1483 1484 1484 1484 1484 1485 1485 1486 1487 1487 1488 1488 1488 1488 1488 1488 1489 1489 1490 1491 1492
1515 1514 1514 1514 1513 1513 1513 1515 1517 1519 1520 1517 1512 1513 1497 1491 1486 1483 1482 1481 1480 1480 1481 1481 1482 1481 1481 1481 1481 1482 1483 1483 1483 1484 1484 1484 1484 1484 1484 1484 1485 1486 1486 1488
1516 1515 1514 1513 1514 1514 1515 1519 1522 1520 1523 1513 1510 1509 1497 1486 1483 1482 1480 1479 1478 1479 1479 1479 1478 1478 1478 1478 1478 1479 1479 1479 1480 1480 1481 1481 1481 1481 1480 1480 1481 1481 1481 1482
1517 1517 1515 1514 1514 1516 1518 1518 1521 1520 1519 1514 1511 1508 1492 1485 1482 1481 1480 1478 1477 1477 1477 1477 1476 1476 1476 1476 1476 1476 1476 1476 1476 1476 1477 1477 1477 1477 1477 1477 1477 1477 1477 1478
1518 1517 1516 1515 1514 1515 1518 1521 1522 1526 1527 1524 1511 1506 1492 1483 1481 1480 1479 1477 1476 1476 1475 1475 1475 1474 1474 1473 1473 1473 1473 1473 1473 1473 1473 1473 1473 1473 1472 1472 1472 1473 1473 1474
1518 1522 1519 1517 1515 1516 1517 1521 1526 1525 1520 1514 1508 1506 1495 1485 1482 1480 1479 1477 1476 1475 1474 1474 1473 1472 1472 1471 1471 1471 1470 1470 1469 1469 1469 1468 1468 1468 1468 1468 1467 1467 1468 1469
1518 1522 1522 1519 1519 1518 1520 1523 1523 1526 1523 1519 1512 1499 1489 1486 1482 1481 1479 1477 1476 1475 1474 1472 1471 1470 1469 1468 1468 1468 1467 1466 1465 1465 1464 1464 1463 1463 1463 1462 1463 1462 1463 1464
1519 1523 1525 1521 1518 1517 1518 1520 1523 1523 1523 1526 1520 1502 1485 1484 1482 1481 1479 1477 1475 1474 1473 1471 1469 1468 1466 1465 1465 1464 1464 1462 1461 1460 1460 1459 1458 1457 1457 1457 1457 1457 1457 1458
1518 1522 1522 1516 1520 1521 1520 1520 1521 1522 1523 1525 1518 1499 1485 1484 1482 1480 1479 1477 1475 1473 1471 1469 1467 1465 1464 1463 1462 1461 1460 1459 1457 1456 1455 1453 1453 1452 1451 1451 1451 1451 1452 1452
1514 1519 1519 1514 1511 1515 1518 1518 1519 1520 1520 1518 1511 1496 1487 1485 1483 1481 1478 1476 1473 1471 1468 1466 1464 1462 1460 1460 1458 1457 1456 1454 1453 1451 1450 1448 1447 1446 1446 1446 1446 1446 1446 1446
1514 1519 1519 1517 1514 1515 1514 1513 1514 1515 1511 1509 1499 1497 1487 1486 1484 1481 1478 1475 1472 1469 1466 1464 1461 1459 1457 1456 1455 1454 1452 1450 1449 1446 1444 1443 1442 1441 1442 1441 1441 1441 1441 1441
1515 1519 1520 1516 1513 1514 1510 1506 1507 1507 1505 1503 1498 1491 1485 1484 1482 1479 1476 1473 1470 1467 1465 1462 1459 1457 1455 1453 1451 1450 1448 1447 1445 1442 1440 1439 1437 1437 1436 1436 1436 1436 1436 1436
1516 1519 1519 1515 1516 1510 1506 1500 1501 1501 1498 1498 1494 1487 1484 1482 1479 1476 1474 1471 1469 1466 1464 1461 1458 1455 1452 1450 1449 1446 1445 1443 1441 1439 1437 1435 1434 1433 1432 1432 1432 1431 1431 1431
1514 1516 1518 1518 1517 1510 1496 1495 1495 1495 1493 1492 1489 1485 1483 1481 1477 1475 1472 1470 1468 1465 1462 1458 1455 1452 1450 1448 1446 1444 1442 1440 1437 1435 1433 1432 1431 1429 1428 1427 1427 1427 1426 1426
1510 1514 1518 1520 1518 1507 1496 1494 1494 1495 1491 1487 1486 1483 1482 1479 1476 1472 1471 1469 1467 1464 1461 1458 1455 1451 1448 1445 1443 1440 1438 1436 1434 1432 1430 1428 1426 1425 1423 1423 1422 1422 1421 1421
1512 1513 1519 1521 1516 1506 1493 1492 1491 1494 1491 1485 1483 1482 1481 1478 1478 1473 1469 1467 1465 1462 1459 1456 1453 1450 1446 1444 1441 1438 1436 1433 1431 1428 1426 1424 1422 1420 1419 1418 1418 1417 1417 1416
1514 1517 1519 1519 1516 1502 1492 1491 1492 1495 1488 1484 1482 1480 1479 1478 1477 1473 1469 1466 1464 1461 1458 1455 1452 1448 1445 1442 1439 1436 1433 1431 1428 1425 1423 1420 1419 1417 1415 1414 1413 1413 1412 1411
1509 1512 1515 1516 1515 1501 1489 1490 1491 1488 1484 1482 1480 1479 1477 1475 1473 1470 1467 1465 1462 1459 1456 1453 1450 1447 1444 1441 1437 1434 1431 1429 1425 1422 1419 1417 1415 1413 1411 1410 1409 1409 1408 1407
1503 1501 1500 1501 1495 1488 1486 1485 1484 1483 1482 1480 1478 1477 1475 1473 1470 1468 1465 1462 1460 1457 1454 1451 1448 1444 1442 1439 1436 1432 1429 1426 1423 1419 1416 1414 1411 1409 1408 1406 1405 1405 1405 1404
1497 1496 1497 1495 1487 1484 1484 1482 1481 1481 1479 1478 1476 1474 1473 1471 1468 1466 1463 1460 1458 1456 1453 1450 1446 1443 1440 1437 1434 1431 1428 1424 1421 1417 1414 1411 1408 1406 1404 1403 1402 1402 1401 1400
1491 1494 1494 1491 1485 1482 1480 1479 1478 1477 1476 1475 1473 1472 1470 1468 1465 1463 1461 1458 1456 1453 1451 1448 1445 1442 1438 1435 1432 1429 1425 1422 1418 1415 1412 1409 1406 1404 1402 1400 1399 1398 1398 1398
1487 1489 1489 1485 1481 1481 1478 1477 1476 1475 1473 1472 1470 1468 1467 1465 1463 1460 1458 1456 1454 1451 1448 1446 1443 1440 1437 1434 1430 1427 1423 1420 1416 1413 1410 1407 1405 1402 1400 1398 1397 1396 1395 1394